Location: Unspecified
(0.0000°N, 0.0000°E)
Time: 01:52:15
(UTC+00:00)

deb Explorer IX - All Passes

Search period start: 19 January 2021 00:00
Search period end: 29 January 2021 00:00
Orbit: 536 x 1104 km, 38.8° (Epoch: 18 January)

Date Brightness Start Highest point End Pass type
(mag) Time Alt. Az. Time Alt. Az. Time Alt. Az.
19 Jan - 03:43:53 10° NW 03:47:59 62° NE 03:52:36 10° ESE visible
19 Jan - 05:32:20 10° WSW 05:34:57 15° SW 05:37:46 10° S visible
19 Jan - 14:37:32 10° SSW 14:44:03 34° SE 14:50:10 10° ENE daylight
19 Jan - 16:24:30 10° WSW 16:31:24 50° NW 16:37:34 10° NNE daylight
20 Jan - 03:20:24 10° NW 03:24:26 62° NE 03:28:55 10° ESE visible
20 Jan - 05:09:00 10° WSW 05:11:22 14° SW 05:13:53 10° S visible
20 Jan - 14:13:42 10° SSW 14:20:14 35° SE 14:26:29 10° ENE daylight
20 Jan - 16:00:38 10° WSW 16:07:37 51° NW 16:13:56 10° NNE daylight
21 Jan - 02:56:54 10° NW 03:00:54 62° NE 03:05:14 10° ESE visible
21 Jan - 04:45:40 10° WSW 04:47:47 13° SW 04:50:00 10° S visible
21 Jan - 13:49:53 10° SSW 13:56:26 35° SE 14:02:47 10° ENE daylight
21 Jan - 15:36:47 10° WSW 15:43:49 51° NW 15:50:18 10° NNE daylight
22 Jan - 02:33:22 10° NW 02:37:21 62° NE 02:41:35 10° ESE visible
22 Jan - 04:22:21 10° WSW 04:24:11 12° SW 04:26:07 10° S visible
22 Jan - 13:26:05 10° SSW 13:32:37 35° SE 13:39:02 10° ENE daylight
22 Jan - 15:12:56 10° WSW 15:20:00 51° NW 15:26:37 10° NNE daylight
23 Jan - 02:09:50 10° NW 02:13:48 62° NE 02:17:57 10° ESE night (unlit)
23 Jan - 03:59:01 10° WSW 04:00:36 12° SW 04:02:15 10° SSW visible
23 Jan - 13:02:17 10° SSW 13:08:47 35° SE 13:15:16 10° ENE daylight
23 Jan - 14:49:05 10° WSW 14:56:11 52° NW 15:02:55 10° NNE daylight
24 Jan - 01:46:16 10° NW 01:50:15 63° NE 01:54:20 10° ESE night (unlit)
24 Jan - 03:35:41 10° SW 03:37:01 11° SW 03:38:22 10° SSW visible
24 Jan - 12:38:31 10° SSW 12:44:57 35° SE 12:51:28 10° ENE daylight
24 Jan - 14:25:15 10° WSW 14:32:20 52° NW 14:39:10 10° NNE daylight
25 Jan - 01:22:41 10° NW 01:26:42 64° NE 01:30:44 10° ESE night (unlit)
25 Jan - 03:12:22 10° SW 03:13:25 11° SW 03:14:29 10° SSW visible
25 Jan - 12:14:45 10° SSW 12:21:07 35° SE 12:27:39 10° ENE daylight
25 Jan - 14:01:26 10° WSW 14:08:29 52° NW 14:15:25 10° NNE daylight
26 Jan - 00:59:04 10° NW 01:03:08 64° NE 01:07:08 10° ESE night (unlit)
26 Jan - 02:49:02 10° SW 02:49:49 10° SW 02:50:36 10° SSW night (unlit)
26 Jan - 11:51:00 10° SSW 11:57:16 35° SE 12:03:48 10° ENE daylight
26 Jan - 13:37:37 10° WSW 13:44:37 52° NW 13:51:38 10° NNE daylight
26 Jan - 15:31:35 10° NW 15:32:20 10° NW 15:33:05 10° NNW daylight
27 Jan - 00:35:25 10° NW 00:39:34 65° NE 00:43:34 10° ESE night (unlit)
27 Jan - 02:25:44 10° SW 02:26:13 10° SW 02:26:42 10° SSW night (unlit)
27 Jan - 11:27:17 10° SSW 11:33:25 35° SE 11:39:56 10° ENE daylight
27 Jan - 13:13:50 10° WSW 13:20:45 52° NW 13:27:48 10° NNE daylight
27 Jan - 15:07:28 10° NW 15:08:32 10° NW 15:09:35 10° NNW daylight
28 Jan - 00:11:44 10° NW 00:15:59 66° NE 00:20:00 10° ESE night (unlit)
28 Jan - 02:02:29 10° SW 02:02:36 10° SW 02:02:43 10° SW night (unlit)
28 Jan - 11:03:34 10° SSW 11:09:35 34° SE 11:16:02 10° ENE daylight
28 Jan - 12:50:03 10° WSW 12:56:53 51° NW 13:03:58 10° NNE daylight
28 Jan - 14:43:30 10° NW 14:44:43 10° NW 14:45:55 10° NNW daylight
28 Jan - 23:48:02 10° NW 23:52:24 67° NE 23:56:26 10° SE night (unlit)
